EDT,Max TemperatureF,Mean TemperatureF,Min TemperatureF,Max Dew PointF,MeanDew PointF,Min DewpointF,Max Humidity, Mean Humidity, Min Humidity, Max Sea Level PressureIn, Mean Sea Level PressureIn, Min Sea Level PressureIn, Max VisibilityMiles, Mean VisibilityMiles, Min VisibilityMiles, Max Wind SpeedMPH, Mean Wind SpeedMPH, Max Gust SpeedMPH,PrecipitationIn, CloudCover, Events, WindDirDegrees
2012-10-1,71,63,54,60,54,47,77,65,53,29.97,29.94,29.88,10,10,10,9,4,12,T,6,,113
2012-10-2,80,75,69,72,68,61,87,80,73,29.97,29.93,29.90,10,8,1,20,9,25,0.19,7,Rain,181
2012-10-3,85,79,73,71,70,66,87,71,55,30.12,30.05,29.96,10,8,4,13,6,17,0.00,4,,229
2012-10-4,86,77,67,71,65,54,87,62,37,30.14,30.11,30.07,10,9,6,13,6,18,0.00,3,,281
2012-10-5,83,73,63,62,58,54,87,62,37,30.12,30.07,29.99,10,9,6,13,6,15,0.00,1,,298
2012-10-6,84,72,60,62,56,46,81,62,43,30.00,29.92,29.83,10,10,7,18,10,26,T,2,,272
2012-10-7,60,55,49,49,46,40,83,67,51,30.14,30.07,30.00,10,7,2,20,9,29,0.58,8,Rain,8
2012-10-8,57,52,47,48,45,40,86,79,71,30.26,30.19,30.12,10,9,5,15,8,18,0.45,7,Rain,13
2012-10-9,64,59,54,56,53,48,86,82,78,30.12,30.08,30.03,10,7,2,14,9,21,0.23,8,Rain,6
2012-10-10,70,62,54,57,54,48,87,70,53,30.04,29.98,29.89,10,5,0,17,6,24,0.00,6,Fog,317
2012-10-11,64,55,45,41,37,33,76,55,34,30.28,30.21,30.07,10,10,10,14,6,19,0.00,0,,323
2012-10-12,71,59,46,48,40,31,77,54,31,30.41,30.22,30.15,10,10,10,18,9,25,0.00,1,,316
2012-10-13,62,52,42,45,36,28,74,58,42,30.49,30.43,30.36,10,10,10,14,7,18,0.00,0,,82
2012-10-14,74,61,48,59,54,42,86,70,53,30.34,30.19,30.02,10,10,7,18,10,24,0.00,0,,223
2012-10-15,79,69,59,59,57,53,84,66,48,30.00,29.81,29.69,10,9,2,22,9,29,0.42,6,Rain,247
2012-10-16,66,56,45,53,44,41,82,63,44,29.94,29.85,29.76,10,10,10,18,8,25,0.00,1,,328
2012-10-17,66,55,44,46,42,38,83,63,43,30.03,29.98,29.92,10,10,10,10,6,13,0.00,3,,232
2012-10-18,69,60,50,62,53,46,83,68,53,30.00,29.94,29.85,10,10,10,18,9,23,0.01,4,Rain,160
2012-10-19,76,71,65,65,63,53,84,72,59,29.85,29.76,29.68,10,9,1,18,12,23,0.04,7,Rain,192
2012-10-20,73,64,55,49,45,42,72,55,37,29.89,29.78,29.72,10,10,10,12,7,15,0.00,1,,273
2012-10-21,69,59,48,44,41,39,80,59,37,30.12,30.04,29.91,10,10,10,14,7,18,0.00,0,,323
2012-10-22,70,58,46,46,42,40,77,57,37,30.20,30.14,30.12,10,10,10,15,6,21,0.00,0,,308
2012-10-23,77,65,52,55,50,45,83,58,33,30.17,30.12,30.09,10,10,10,15,7,18,0.00,1,,251
2012-10-24,77,68,59,58,54,50,84,67,49,30.14,30.10,30.06,10,10,6,12,5,23,0.00,1,,274
2012-10-25,68,66,63,60,58,57,84,76,68,30.21,30.17,30.14,10,8,5,16,11,20,0.00,7,,79
2012-10-26,72,67,62,61,59,57,84,76,68,30.16,30.11,30.01,10,10,9,17,10,28,0.00,2,,59
2012-10-27,68,65,61,57,55,53,78,71,63,30.00,29.85,29.76,10,10,10,26,19,34,T,5,Rain,58
2012-10-28,62,60,58,55,53,52,86,79,72,29.76,29.55,29.38,10,5,1,30,19,40,1.79,8,Rain,28
2012-10-29,58,52,46,52,46,32,100,82,64,29.38,28.98,28.63,9,2,1,44,26,68,6.58,8,Rain,324
2012-10-30,48,46,44,44,39,32,92,79,65,29.51,29.30,28.98,10,10,6,25,14,36,0.11,8,Rain,230
2012-10-31,57,49,41,39,36,33,76,62,47,29.66,29.59,29.51,10,10,10,16,8,21,0.00,4,,253